Weather in Assagao

India     15°32′45″N   73°47′08″E
temp.,
°C
wind,
m/s
gust,
m/s
humid.,
%
clouds,
%
prec.,
mm/h
press.,
hPa
HPBL,
m
11 may, tue
tue1123:30+30nw33735 0.0 1008571
02:30+29nw237294 0.0 1006557
05:30+29nnw227481 0.0 1007581
08:30+30nnw347377 0.0 1009710
11:30+30wnw557098 0.0 1009667
14:30+31wnw776997 0.0 1007691
17:30+30nw787197 0.0 1005821
20:30+30nw5674100 0.0 1007688
12 may, wed
wed1223:30+29nnw4473100 0.0 1007605
02:30+29nnw3374100 0.0 1006570
05:30+28n2376100 0.0 1006508
08:30+30nnw237023 0.0 1008682
11:30+30w657085 0.0 1008697
14:30+31wnw7668100 0.0 1005743
17:30+30nw7769100 0.0 1004944
20:30+30nw5571100 0.0 1005804
13 may, thu
thu1323:30+30nw4572100 0.0 1006834
02:30+29wnw447495 0.1 1004717
05:30+30nw4471100 0.1 1005867
08:30+30nw4470100 0.1 1007699
11:30+31wnw556564 0.2 1007756
14:30+30w5566100 0.0 1004582
17:30+30wnw5567100 0.0 1004745
20:30+30wnw4570100 0.0 1005520
14 may, fri
fri1423:30+29wnw2269100 0.0 1006542
02:30+29wnw1270100 0.0 1004578
05:30+28ne127360 0.0 1004513
08:30+29ne337285 0.0 1005432
11:30+30wsw546971 0.0 1004537
14:30+31sw776738 0.4 1002672
17:30+30ssw3469100 0.7 1002763
20:30+30s4679100 0.8 1004666
15 may, sat
sat1523:30+30sse7977100 7.5 1005783
02:30+29se6980100 1.3 1002782
05:30+28se578356 1.5 1002558
08:30+29se6976100 0.1 1003855
11:30+31s91068100 0.1 1003869
14:30+30s111378100 0.0 1000764
17:30+30s101380100 0.1 10001077
20:30+29sse111579100 0.8 10021214